Regional Weather Roundup
Issued by NWS Wakefield, VA

Home | Current Version | Previous Version | Graphics & Text | Print | Product List | Glossary On
Versions: 1 2 3 4 5 6 7 8 9 10 11 12 13 14 15 16 17 18 19 20 21 22 23 24 25 26 27 28 29 30 31 32 33 34 35 36 37 38 39 40 41 42 43 44 45 46 47 48 49 50
000
ASUS41 KAKQ 221715
RWRAKQ

REGIONAL WEATHER ROUNDUP
NATIONAL WEATHER SERVICE WAKEFIELD VA
100 PM EDT SUN OCT 22 2017

Note: "fair" indicates few or no clouds below 12,000 feet with no
significant weather and/or obstructions to visibility. * = Denotes
station may not report precipitation (e.g., rain,snow,etc.),
thunder or fog.

VAZ042-051-052>054-056-221800-
NORTHERN VIRGINIA

CITY           SKY/WX    TMP DP  RH WIND       PRES   REMARKS
WASH NATIONAL  PTSUNNY   75  55  49 S7        30.37F
DULLES         MOSUNNY   74  58  57 SE8       30.36F
FORT BELVOIR   SUNNY     73  57  56 SE8       30.36F
QUANTICO       MOSUNNY   71  60  68 SW6       30.37F
FREDERICKSBRG* SUNNY     74  59  59 S5        30.35F
STAFFORD*      SUNNY     73  58  58 SE5       30.40F
WARRENTON      SUNNY     75  53  45 S3        30.35F
CULPEPER*      SUNNY     75  54  49 SE3       30.37F
MANASSAS*      SUNNY     73  58  59 SE8       30.36F
LEESBURG*      SUNNY     73  59  60 S6        30.36F
WINCHESTER     SUNNY     70  54  56 S5        30.34F
FRONT ROYAL*   SUNNY     73  55  53 CALM      30.33F
LURAY*         SUNNY     75  54  46 SW10      30.34F
$$

VAZ048-049-060>072-079>083-221800-
CENTRAL AND SOUTH CENTRAL VIRGINIA

CITY           SKY/WX    TMP DP  RH WIND       PRES   REMARKS
RICHMOND       PTSUNNY   73  57  57 SW3       30.37F
CHESTERFIELD*  NOT AVBL
PETERSBURG*    SUNNY     74  56  53 CALM      30.37F
HANOVER        SUNNY     73  58  59 CALM      30.38F
TAPPAHANNOCK*  SUNNY     76  41  28 N3        30.37F
QUINTON*       FAIR      72  54  53 S3        30.36F
CHARLOTTSVILLE SUNNY     75  54  47 S8        30.35F
GORDONSVILLE*  SUNNY     74  57  53 S8        30.35F
ORANGE*        SUNNY     73  55  53 CALM      30.35F
LOUISA*        SUNNY     73  55  53 CALM      30.36S
BUMPASS*       FAIR      73  58  59 S10       30.36F
FARMVILLE*     SUNNY     77  58  51 S6        30.34F
CREWE*         FAIR      76  57  51 S5        30.36F
FORT PICKETT*  FAIR      75  56  51 S5        30.36F
CHASE CITY*    FAIR      75  55  50 E8        30.35F
CLARKSVILLE*   FAIR      73  57  56 NE3       30.35F
SOUTH HILL*    MOSUNNY   75  58  55 S5        30.42F
LAWRENCEVILLE* FAIR      76  54  47 E5        30.36F
EMPORIA*       SUNNY     73  55  53 SE3       30.38S
$$

VAZ088>098-221800-
SOUTHEAST VIRGINIA

CITY           SKY/WX    TMP DP  RH WIND       PRES   REMARKS
NORFOLK        MOSUNNY   75  61  61 E6        30.35F
VIRGINIA BEACH MOSUNNY   74  58  57 SE6       30.35F
NORFOLK NAVAL  PTSUNNY   74  60  61 NE12      30.37F
WEST POINT*    SUNNY     74  55  51 S6        30.38F
SALUDA*        FAIR      70  65  82 E8        30.37F
NEWPORT NEWS   SUNNY     73  58  59 S5        30.36F
LANGLEY AFB    SUNNY     73  60  63 E7        30.36F
FORT EUSTIS    SUNNY     76  60  57 S8        30.34F
WILLIAMSBURG*  SUNNY     77  57  50 SE6       30.37F
HR EXEC AP*    NOT AVBL
FRANKLIN*      SUNNY     75  51  42 CALM      30.36F
US460-WAKEFLD  SUNNY     75  55  49 S3        30.36F
$$

VAZ020-022-025-037-045-221800-
WEST CENTRAL AND SOUTHWEST VIRGINIA

CITY           SKY/WX    TMP DP  RH WIND       PRES   REMARKS
STAUNTON*      SUNNY     73  52  46 S7        30.36F
WAYNESBORO*    SUNNY     73  52  48 S6        30.35F
HOT SPRINGS VA SUNNY     63  44  49 SE12G20   30.41F
LYNCHBURG      SUNNY     73  52  47 S8        30.35F
DANVILLE       SUNNY     73  56  54 VRB6      30.35F
SOUTH BOSTON*  FAIR      76  54  45 S5        30.35F
MARTINSVILLE   SUNNY     72  53  51 S3        30.37F
ROANOKE        MOSUNNY   72  53  51 SE9       30.36F
BLACKSBURG     SUNNY     71  49  46 SE10      30.38F
DUBLIN*        SUNNY     71  53  51 E7        30.36F
MARION*        SUNNY     71  45  39 E7        30.37S
HILLSVILLE*    SUNNY     66  46  48 S8        30.36F
RICHLANDS*     FAIR      72  26  18 SE5       30.32F
WISE*          MOSUNNY   70  46  43 S8G16     30.31F
ABINGDON*      SUNNY     75  46  35 SW3       30.30F
$$

MDZ021>025-VAZ099-100-221800-
SOUTHERN MARYLAND AND THE DELMARVA PENINSULA

CITY           SKY/WX    TMP DP  RH WIND       PRES   REMARKS
PATUXENT RIVER PTSUNNY   71  60  68 SE9       30.37F
BAY BRIDGE APT SUNNY     70  61  73 SE7       30.38F
LEONARDTOWN    NOT AVBL
DOVER          MOSUNNY   70  61  73 E9        30.38F
GEORGETOWN     SUNNY     75  54  47 S6        30.38F
EASTON         MOSUNNY   75  50  41 SE6       30.41F
CAMBRIDGE      SUNNY     73  50  43 S7G14     30.38F
SALISBURY      SUNNY     74  54  49 SE5       30.37F
OCEAN CITY     SUNNY     70  60  70 VRB6      30.40F
WALLOPS ISLAND SUNNY     72  57  59 SE8       30.38F
ACCOMACK*      SUNNY     74  60  62 SE5       30.37F
$$

NCZ012>017-030>032-221800-
NORTH CENTRAL AND EASTERN NORTH CAROLINA

CITY           SKY/WX    TMP DP  RH WIND       PRES   REMARKS
ROANOKE RAPIDS FAIR      75  55  50 E5        30.36F
RALEIGH        MOSUNNY   75  56  51 SE6       30.35F
ELIZABETH CITY SUNNY     77  62  59 E8        30.35F
AHOSKIE*       SUNNY     73  55  53 E6        30.36F
EDENTON*       SUNNY     77  63  62 CALM      30.36F
CURRITUCK*     SUNNY     74  61  62 E6        30.37F
KILL DEVIL HLS SUNNY     74  63  69 CALM      30.35S
MANTEO         SUNNY    N/A N/A N/A E8        30.36F
CAPE HATTERAS  MOSUNNY   81  61  50 SE8       30.34F
TARBORO*       NOT AVBL
GOLDSBORO      MOSUNNY   78  59  51 SE8       30.32F HAZE
WASHINGTON     SUNNY     76  58  52 E3        30.35F
GREENVILLE     SUNNY     77  57  50 E3        30.35F
NEW BERN       MOSUNNY   78  62  57 SE7       30.35F
WILMINGTON     SUNNY     79  65  62 SE9       30.33F
$$

VAZ048-221800-
ELSEWHERE

CITY           SKY/WX    TMP DP  RH WIND       PRES   REMARKS
HARRISBURG PA  MOSUNNY   72  53  51 SE7       30.35F
BALTIMORE      MOSUNNY   72  53  51 E7        30.36F
ANNAPOLIS      SUNNY     65  65 100 SE9       30.37F FOG
ANDREWS AFB    SUNNY     73  52  47 SE6       30.36F
PHILADELPHIA   PTSUNNY   73  49  42 CALM      30.39F
HENDERSON NC   SUNNY     72  52  50 CALM      30.36F
GREENSBORO     MOSUNNY   74  56  53 SE9       30.34F
ROCKY MOUNT    SUNNY     76  57  51 E5        30.35F
$$

VAZ100-221800-
MARINE

STATION/POSITION TIME  TEMP    WIND        PRES    WAVE   SWELL
                       AIR SEA DIR/SP/G            HT/PER HT/PER
                 (UTC) (F)     (DEG/KT/KT) (MB)    (FT/S) (FT/S)
BRANDYWINE LGT   1636   64      30/  3/  3 1029.7F
CAPE MAY NJ      1648   69 66  180/  6/  9 1028.7F
LEWES DE         1636   70 65  140/  8/ 11 1028.8F
15NM E FENWICK I 1650   67 68  100/  8/ 10 1029.5F   2/ 8   2/ 8
OCEAN-CITY-INLET 1636   69 67  160/  6/  7 1029.8F
WACHAPREAGUE VA  1648   70 68  100/  5/  6 1028.7F
THOMAS POINT MD  1700   63 68     CALM       N/A
GOOSES REEF MD   1700   68 70   CALM  /  2 1036.7    0
COVE POINT MD    1648   66     170/  9/ 10 1029.3F
SOLOMONS ISLAND  1648   68 69  130/  6/  8 1028.1F
BISHOPS HEAD MD  1648   67 69  160/  5/  5 1029.1F
PINEY POINT MD   1630          160/  7/  7   N/A
POTOMAC MD       1700   68 70  130/  8/ 10 1028.0
CAMBRIDGE MD     1636   75 68              1029.4F
LEWISETTA VA     1636   67 66  110/  9/ 11 1028.4F
RAPPAHANNOCK LGT 1648          310/  2/  3 1029.0F
STINGRAY PT      1650   69     140/  4/  4 1028.8F
YORK RVR RNG VA  1648   69     150/  5/  6 1028.8F
YORKTOWN VA      1648   68 69   80/ 10/ 10 1027.8F
JAMESTOWN VA     1700      71  170/  6/  8   N/A     0
DOMINION TERM VA 1648   71      40/  2/  3 1028.4F
KIPTOPEKE VA     1642      68  170/  5/  7   N/A
CAPE HENRY VA    1648   70     100/  8/  9   N/A
WILLOUBY STN VA  1642   69      70/  7/  8 1028.1F
S CRANEY ISL VA  1648   70      20/  4/  5 1027.8F
CAPE HENRY BUOY  1700      70                N/A     2/ 9
1ST LANDING BUOY 1640   69                 1028.3F
CAPE CHARLES BUO 1651      70                N/A     2/ 8
64NM E OF VA BCH 1650   69 69   50/  8/  8 1028.5F   3/ 8   2/ 8
DUCK PIER NC     1648   72 70   80/  8/  9 1027.6F
44100 DUCK FRF   1622      71                N/A     3/25   2/25
44056 DUCK FRF   1700      70                N/A     2/ 8
OREGON INLET NC  1642   72 70   50/  6/ 10 1027.7F
HATTERAS NC      1648   76 71  110/  6/  9 1027.4F
DIAMOND SHLS NC  1650   76 81   80/  8/ 10 1027.3F   3/ 8   3/ 8
CAPE LOOKOUT NC  1600   76     150/  3/  4 1026.9F
$$



USA.gov is the U.S. government's official web portal to all federal, state and local government web resources and services.